Location: Unspecified
(0.0000°N, 0.0000°E)
Time: 17:58:48
(UTC+00:00)

Envisat - Pass Details

Date: 20 October 2021
Orbit: 764 x 766 km, 98.2° (Epoch: 23 October)

Event Time Altitude Azimuth Distance (km) Brightness Sun altitude
Rises 05:18:50 0° 353° (N) 3,213 6.0 -6.4°
Reaches altitude 10° 05:21:22 10° 343° (NNW) 2,290 5.2 -5.8°
Maximum altitude 05:25:45 30° 282° (WNW) 1,336 3.7 -4.7°
Drops below altitude 10° 05:30:09 10° 221° (SW) 2,300 5.2 -3.6°
Sets 05:32:43 0° 211° (SSW) 3,228 6.0 -3.0°
